EW2348 Weather Reports


Display with metric or nautical units.
time (UTC)temp
F
wind
direction
speed
MPH
gust
MPH
rain 1hr
in
rain 24hr
in
rain mn
in
humidity
%
barometer
mb
20141222002039 31 0 0.0 0.0 0.00 0.00 0.00 88 1020.9
20141222000038 31 0 0.0 0.0 0.00 0.00 0.00 86 1020.7
20141221235039 31 0 12.0 0.0 0.05 0.05 0.05 87 1020.7
20141221233037 32 0 0.0 0.0 0.00 0.00 0.00 85 1020.8
20141221231037 32 0 0.0 0.0 0.00 0.00 0.00 84 1020.9
20141221230038 33 0 0.0 0.0 0.00 0.00 0.00 82 1020.9
20141221225037 33 0 0.0 0.0 0.00 0.00 0.00 82 1021.0
20141221224037 33 0 0.0 0.0 0.00 0.00 0.00 81 1020.8
20141221220037 37 0 0.0 0.0 0.00 0.00 0.00 71 1021.2
20141221213037 38 0 0.0 0.0 0.00 0.00 0.00 73 1021.2
20141221212036 38 0 0.0 0.0 0.00 0.00 0.00 72 1021.1
20141221211037 38 0 0.0 0.0 0.00 0.00 0.00 71 1021.3
20141221205036 39 0 0.0 0.0 0.00 0.00 0.00 70 1021.4
20141221204037 40 0 0.0 0.0 0.00 0.00 0.00 69 1021.6
20141221202036 41 0 0.0 0.0 0.00 0.00 0.00 67 1021.5
20141221201036 42 0 0.0 0.0 0.00 0.00 0.00 65 1021.7
20141221200035 42 0 0.0 0.0 0.00 0.00 0.00 64 1021.7
20141221195036 22 0 0.0 0.0 0.00 0.00 0.00 63 1021.9
20141221194035 42 0 0.0 0.0 0.00 0.00 0.00 66 1021.8
20141221192035 41 0 0.0 0.0 0.00 0.00 0.00 67 1021.9
20141221191035 40 0 0.0 0.0 0.00 0.00 0.00 68 1022.3
20141221190035 40 0 0.0 0.0 0.00 0.00 0.00 67 1022.5
20141221185034 40 0 0.0 0.0 0.00 0.00 0.00 67 1022.7
20141221184035 40 0 0.0 0.0 0.00 0.00 0.00 67 1022.8
20141221183035 37 0 0.0 0.0 0.00 0.00 0.00 74 1023.0
20141221182034 36 0 0.0 0.0 0.00 0.00 0.00 75 1023.0
20141221180034 35 0 0.0 0.0 0.00 0.00 0.00 74 1023.5
20141221175035 35 0 0.0 0.0 0.00 0.00 0.00 74 1023.8
20141221174034 37 0 0.0 0.0 0.00 0.00 0.00 71 1023.8
20141221172034 35 0 0.0 0.0 0.00 0.00 0.00 75 1024.2
20141221171034 35 0 0.0 0.0 0.00 0.00 0.00 75 1024.4
20141221170034 35 0 0.0 0.0 0.00 0.00 0.00 77 1024.8
20141221165034 34 0 0.0 0.0 0.00 0.00 0.00 73 1025.0
20141221164033 36 0 0.0 0.0 0.00 0.00 0.00 68 1025.0
20141221162033 33 0 0.0 0.0 0.00 0.00 0.00 77 1025.1
20141221161034 33 0 0.0 0.0 0.00 0.00 0.00 77 1025.3
20141221155036 33 0 6.0 0.0 0.00 0.01 0.00 92 1025.7
20141221154033 29 0 0.0 0.0 0.00 0.01 0.00 79 1025.8
20141221153033 29 0 0.0 0.0 0.00 0.01 0.00 79 1025.7
20141221152032 29 0 0.0 0.0 0.00 0.01 0.00 79 1025.6
20141221151035 29 0 0.0 0.0 0.00 0.01 0.00 79 1025.8
20141221150033 29 0 0.0 0.0 0.00 0.01 0.00 79 1025.7
20141221143032 29 0 0.0 0.0 0.00 0.01 0.00 79 1025.8
20141221141033 29 0 0.0 0.0 0.00 0.01 0.00 79 1025.8
20141221135033 29 0 0.0 0.0 0.00 0.01 0.00 79 1025.4
20141221133032 29 0 0.0 0.0 0.00 0.01 0.00 79 1025.5
20141221132032 29 0 0.0 0.0 0.00 0.01 0.00 79 1025.3
20141221125031 29 0 0.0 0.0 0.00 0.01 0.00 79 1025.3
20141221123034 29 0 0.0 0.0 0.00 0.01 0.00 79 1025.5
20141221122030 29 0 0.0 0.0 0.00 0.01 0.00 79 1025.4
20141221121031 29 0 0.0 0.0 0.00 0.01 0.00 79 1025.3
20141221120030 29 0 0.0 0.0 0.00 0.01 0.00 79 1025.3
20141221115031 29 0 0.0 0.0 0.00 0.01 0.00 79 1025.3
20141221114030 29 0 0.0 0.0 0.00 0.01 0.00 79 1025.5
20141221113030 29 0 0.0 0.0 0.00 0.01 0.00 79 1025.3
20141221112030 29 0 0.0 0.0 0.00 0.01 0.00 79 1025.3
20141221110030 29 0 0.0 0.0 0.00 0.01 0.00 79 1025.4
20141221105029 29 0 0.0 0.0 0.00 0.01 0.00 79 1025.5
20141221102029 29 0 0.0 0.0 0.00 0.01 0.00 79 1025.1
20141221101030 29 0 0.0 0.0 0.00 0.01 0.00 79 1025.1
20141221095030 29 0 0.0 0.0 0.00 0.01 0.00 79 1025.1
20141221094029 29 0 0.0 0.0 0.00 0.01 0.00 79 1025.1
20141221093029 29 0 0.0 0.0 0.00 0.01 0.00 79 1025.1
20141221092029 29 0 0.0 0.0 0.00 0.01 0.00 79 1025.2
20141221091028 29 0 0.0 0.0 0.00 0.01 0.00 79 1025.1
20141221090029 29 0 0.0 0.0 0.00 0.01 0.00 79 1025.2
20141221083028 29 0 0.0 0.0 0.00 0.01 0.00 79 1025.3
20141221082029 29 0 0.0 0.0 0.00 0.01 0.00 79 1025.1
20141221081028 29 0 0.0 0.0 0.00 0.01 0.00 79 1025.3
20141221080029 29 0 0.0 0.0 0.00 0.01 0.00 79 1025.2
20141221075029 29 0 0.0 0.0 0.00 0.01 0.00 79 1025.2
20141221072027 29 0 0.0 0.0 0.00 0.01 0.00 79 1025.0
20141221071028 29 0 0.0 0.0 0.00 0.01 0.00 79 1025.2
20141221065027 29 0 0.0 0.0 0.00 0.01 0.00 79 1025.0
20141221064027 29 0 0.0 0.0 0.00 0.01 0.00 79 1024.8
20141221063027 29 0 0.0 0.0 0.00 0.01 0.00 79 1024.9
20141221062027 29 0 0.0 0.0 0.00 0.01 0.00 79 1024.9
20141221061028 29 0 0.0 0.0 0.00 0.01 0.00 79 1024.9
20141221060027 29 0 0.0 0.0 0.00 0.01 0.00 79 1025.0
20141221055027 29 0 0.0 0.0 0.00 0.01 0.00 79 1025.0
20141221054027 29 0 0.0 0.0 0.00 0.01 0.00 79 1025.1
20141221053026 29 0 0.0 0.0 0.00 0.01 0.00 79 1025.1
20141221050026 29 0 0.0 0.0 0.00 0.01 0.00 79 1025.4
20141221045026 29 0 0.0 0.0 0.00 0.01 0.01 80 1025.3
20141221044026 29 0 0.0 0.0 0.00 0.01 0.01 80 1025.3
20141221043027 29 0 0.0 0.0 0.00 0.01 0.01 81 1025.1
20141221042025 29 0 97.0 0.0 0.00 0.01 0.01 81 1025.1
20141221041026 29 0 0.0 0.0 0.00 0.01 0.01 81 1025.0
20141221040025 29 0 0.0 0.0 0.00 0.01 0.01 82 1024.9
20141221035025 30 1 0.0 6.0 0.00 0.01 0.01 83 1024.8
20141221034025 30 1 0.0 6.0 0.00 0.01 0.01 83 1025.0
20141221032025 30 1 0.0 6.0 0.00 0.01 0.01 83 1025.0
20141221031024 34 0 0.0 0.0 0.00 0.01 0.01 91 1025.0
20141221025024 30 0 0.0 0.0 0.00 0.01 0.01 83 1025.0
20141221024024 30 0 0.0 0.0 0.00 0.01 0.01 83 1025.0
20141221022024 30 0 0.0 0.0 0.00 0.01 0.01 84 1025.1
20141221020024 30 0 0.0 0.0 0.00 0.01 0.01 84 1024.9
20141221015023 30 0 0.0 0.0 0.00 0.01 0.01 84 1025.0
20141221012024 31 0 0.0 0.0 0.00 0.01 0.01 84 1024.9
20141221011024 31 0 0.0 0.0 0.00 0.01 0.01 84 1024.8
20141221010023 31 0 0.0 0.0 0.00 0.01 0.01 84 1024.9
20141221005026 31 0 0.0 0.0 0.00 0.01 0.01 84 1024.8
20141221004023 31 0 0.0 0.0 0.00 0.01 0.01 84 1024.7